TimeCST,TemperatureF,Dew PointF,Humidity,Sea Level PressureIn,VisibilityMPH,Wind Direction,Wind SpeedMPH,Gust SpeedMPH,PrecipitationIn,Events,Conditions,WindDirDegrees,DateUTC
12:52 AM,33.1,30.0,89,29.86,7.0,NNW,12.7,-,N/A,,Mostly Cloudy,330,2012-12-24 06:52:00
1:48 AM,32.0,30.2,93,29.87,5.0,NW,9.2,-,N/A,,Scattered Clouds,320,2012-12-24 07:48:00
1:52 AM,32.0,30.0,92,29.89,5.0,NW,12.7,-,N/A,,Mostly Cloudy,310,2012-12-24 07:52:00
2:00 AM,32.0,28.9,88,29.87,5.0,NW,10.4,-,N/A,,Mostly Cloudy,320,2012-12-24 08:00:00
2:21 AM,30.9,27.0,85,29.87,6.0,NW,6.9,-,N/A,,Mostly Cloudy,320,2012-12-24 08:21:00
2:33 AM,28.9,27.0,92,29.86,5.0,NNW,5.8,-,N/A,,Partly Cloudy,330,2012-12-24 08:33:00
2:52 AM,28.0,26.1,92,29.88,5.0,NNW,5.8,-,N/A,,Clear,330,2012-12-24 08:52:00
3:52 AM,27.0,24.1,89,29.89,5.0,NNW,12.7,-,N/A,,Clear,330,2012-12-24 09:52:00
4:52 AM,24.1,21.9,91,29.91,5.0,NNW,5.8,-,N/A,,Clear,340,2012-12-24 10:52:00
5:52 AM,24.1,21.0,88,29.98,5.0,NW,9.2,-,N/A,,Clear,310,2012-12-24 11:52:00
6:52 AM,23.0,19.9,88,29.99,4.0,NNW,9.2,-,N/A,,Clear,340,2012-12-24 12:52:00
7:52 AM,23.0,19.9,88,30.02,3.0,NNW,6.9,-,N/A,,Clear,340,2012-12-24 13:52:00
8:52 AM,25.0,21.9,88,30.03,3.0,NNW,6.9,-,N/A,,Clear,330,2012-12-24 14:52:00
9:52 AM,28.0,21.9,78,30.03,4.0,NNW,5.8,-,N/A,,Haze,340,2012-12-24 15:52:00
10:52 AM,30.0,23.0,75,30.04,6.0,NNW,8.1,-,N/A,,Haze,330,2012-12-24 16:52:00
11:52 AM,30.9,23.0,72,30.02,5.0,NW,6.9,-,N/A,,Haze,310,2012-12-24 17:52:00
12:52 PM,34.0,23.0,64,30.00,7.0,NNW,9.2,-,N/A,,Clear,330,2012-12-24 18:52:00
1:52 PM,35.1,23.0,61,29.99,7.0,North,11.5,-,N/A,,Clear,350,2012-12-24 19:52:00
2:52 PM,35.1,24.1,64,30.01,6.0,NNW,8.1,-,N/A,,Haze,340,2012-12-24 20:52:00
3:52 PM,34.0,24.1,67,30.03,6.0,NNW,10.4,-,N/A,,Haze,340,2012-12-24 21:52:00
4:52 PM,30.9,23.0,72,30.04,6.0,NNW,9.2,-,N/A,,Haze,340,2012-12-24 22:52:00
5:52 PM,28.0,21.0,75,30.06,6.0,North,12.7,-,N/A,,Haze,360,2012-12-24 23:52:00
6:52 PM,24.1,19.9,84,30.06,5.0,NNE,11.5,-,N/A,,Clear,20,2012-12-25 00:52:00
7:30 PM,24.1,19.9,84,30.02,5.0,NNE,11.5,-,N/A,,Mostly Cloudy,20,2012-12-25 01:30:00
7:52 PM,24.1,19.9,84,30.07,5.0,NNE,13.8,-,N/A,,Overcast,30,2012-12-25 01:52:00
8:52 PM,24.1,19.0,81,30.08,5.0,NNE,11.5,-,N/A,,Haze,30,2012-12-25 02:52:00
9:52 PM,24.1,19.0,81,30.07,6.0,NE,17.3,-,N/A,,Haze,40,2012-12-25 03:52:00
10:52 PM,24.1,19.9,84,30.07,5.0,NE,15.0,-,N/A,,Overcast,50,2012-12-25 04:52:00
11:52 PM,24.1,19.9,84,30.07,5.0,NE,13.8,-,N/A,,Overcast,40,2012-12-25 05:52:00